User: anonymous   Login
Location: ????????
(55.6189°N, 38.3031°E)
Time: 08:02:32
(UTC+00:00)
Language:

Okean 3 Rocket - Orbit

View from above orbital plane
View from above orbital plane
View from above satellite
View from above satellite

Ground track
Ground track

The orbit data is extracted from the following two-line orbital elements,

1 21398U 91039B   20026.19388608  .00000074  00000-0  68306-5 0  9997
2 21398  82.5210  58.9915 0020056 300.9610  58.9632 14.79753797544838
Epoch (UTC): 26 January 2020 04:39:11
Eccentricity: 0.0020056
inclination: 82.5210°
perigee height: 616 km
apogee height: 644 km
right ascension of ascending node: 58.9915°
argument of perigee: 300.9610°
revolutions per day: 14.79753797
mean anomaly at epoch: 58.9632°
orbit number at epoch: 54483

The dashed part of the orbit path shows where the satellite is in the earth's shadow,  

DLR